Location: Unspecified
(54.1780°N, 0.0000°E)
Time: 02:23:42
(UTC+00:00)

Tiros 1 - Pass Details

Date: 18 June 2019
Orbit: 630 x 664 km, 48.4° (Epoch: 23 July)

Event Time Altitude Azimuth Distance (km) Brightness Sun altitude
Rises 04:26:35 0° 264° (W) 2,926 10.0 6.1°
Reaches altitude 10° 04:29:01 10° 257° (WSW) 2,014 9.1 6.4°
Maximum altitude 04:33:18 38° 190° (S) 963 7.8 7.0°
Drops below altitude 10° 04:37:34 10° 122° (ESE) 2,007 10.1 7.5°
Sets 04:39:59 0° 114° (ESE) 2,914 11.1 7.8°
